Regional Weather Roundup
Issued by NWS Sioux Falls, SD

Home | Current Version | Previous Version | Graphics & Text | Print | Product List | Glossary On
Versions: 1 2 3 4 5 6 7 8 9 10 11 12 13 14 15 16 17 18 19 20 21 22 23 24 25 26 27 28 29 30 31 32 33 34 35 36 37 38 39 40 41 42 43 44 45 46 47 48 49 50
000
ASUS43 KFSD 020902
RWRFSD

WEATHER ROUNDUP FOR SE SOUTH DAKOTA/SW MINNESOTA/NW IOWA
NATIONAL WEATHER SERVICE SIOUX FALLS SD
400 AM CDT SAT AUG 02 2014

NOTE: "FAIR" INDICATES FEW OR NO CLOUDS BELOW 12,000 FEET WITH NO
SIGNIFICANT WEATHER AND OR OBSTRUCTIONS TO VISIBILITY.


SDZ038>040-050-052>070-021000-
SOUTHEAST SOUTH DAKOTA

CITY           SKY/WX    TMP DP  RH WIND       PRES   REMARKS
CHAMBERLAIN    MOCLDY    66  60  83 NE3G26    30.12R
HURON          CLOUDY    67  58  72 NW8       30.12R
MADISON        FAIR      63  61  94 S7        30.12S
MITCHELL       MOCLDY    63  60  90 SE8       30.07S
SIOUX FALLS    PTCLDY    61  57  87 CALM      30.11F
WINNER         FAIR      67  58  72 S8        30.07S
YANKTON        CLOUDY    64  61  88 E7        30.10F
$$

MNZ071-072-080-081-089-090-097-098-021000-
SOUTHWEST MINNESOTA

CITY           SKY/WX    TMP DP  RH WIND       PRES   REMARKS
FAIRMONT       CLEAR     61  55  82 W3        30.13R
JACKSON        CLEAR     59  55  88 CALM      30.14S
LUVERNE        PTCLDY    57  54  88 CALM      30.14S
MARSHALL       PTCLDY    63  55  77 SW7       30.11R
MONTEVIDEO     PTCLDY    63  57  82 CALM      30.11S
PIPESTONE      MOCLDY    63  57  82 CALM      30.13F
REDWOOD FALLS  CLEAR     65  58  78 S3        30.11R
TRACY          PTCLDY    64  59  83 SW6       30.13S
WINDOM         CLEAR     59  55  88 CALM      30.14S
WORTHINGTON    MOCLDY    57  54  88 SW3       30.15F
$$

IAZ001>003-012>014-020>022-031-032-NEZ013-014-SDZ071-021000-
NORTHWEST IOWA

CITY           SKY/WX    TMP DP  RH WIND       PRES   REMARKS
CHEROKEE       PTCLDY    57  57 100 CALM      30.14S
DENISON        PTCLDY    57  57 100 CALM      30.13S
ESTHERVILLE    CLEAR     58  56  93 W6        30.13S
LE MARS        MOCLDY    57  57 100 CALM      30.14S
ORANGE CITY    MOCLDY    64  55  72 CALM      30.14S
SHELDON        PTCLDY    55  54  94 CALM      30.13S
SIOUX CITY     MOCLDY    61  59  93 CALM      30.13F
SPENCER        PTCLDY    56  54  93 CALM      30.14S
STORM LAKE     PTCLDY    61  61 100 SW6       30.15S
$$

ABBREVIATIONS USED IN REMARKS
   TC - TEMPERATURE IN CELSIUS
  WCI - WIND CHILL INDEX
   HX - HEAT INDEX
  VSB - VISIBILITY



USA.gov is the U.S. government's official web portal to all federal, state and local government web resources and services.